When you browse on this site, cookies collect data to enhance your experience and personalize the content and advertising you see.
Visit our Privacy Policy to learn more. By continuing to use the site, you agree to this use of cookies and data.
  • In Spain
  • List of Countries
  • For 7 days
  • Water Temperature
  • Satellite Maps
  • Weather Map
  • Weather Widgets
  • user-avatar
    Login

    Hourly Weather Er-Riyad

    Today, 19 December, Wednesday

    Time Temperature Precipitation Wind Pressure Humidity
    00:00 +19°C° 0 mm 3 mps 714 mmHg 57%
    01:00 +18°C° 0 mm 3 mps 713 mmHg 59%
    02:00 +17°C° 0 mm 3 mps 713 mmHg 61%
    03:00 +17°C° 0 mm 3 mps 713 mmHg 66%
    04:00 +16°C° 0 mm 3 mps 713 mmHg 67%
    05:00 +16°C° 0 mm 3 mps 713 mmHg 68%
    06:00 +16°C° 0 mm 3 mps 714 mmHg 69%
    07:00 +16°C° 0 mm 3 mps 714 mmHg 66%
    08:00 +16°C° 0 mm 3 mps 714 mmHg 64%
    09:00 +17°C° 0 mm 3 mps 715 mmHg 61%
    10:00 +18°C° 0 mm 3 mps 714 mmHg 57%
    11:00 +20°C° 0 mm 2 mps 714 mmHg 53%
    12:00 +21°C° 0 mm 2 mps 714 mmHg 49%
    13:00 +23°C° 0 mm 2 mps 714 mmHg 47%
    14:00 +22°C° 0 mm 3 mps 713 mmHg 45%
    15:00 +24°C° 0 mm 3 mps 713 mmHg 43%
    16:00 +22°C° 0 mm 3 mps 713 mmHg 45%
    17:00 +22°C° 0 mm 3 mps 713 mmHg 47%
    18:00 +21°C° 0 mm 3 mps 713 mmHg 49%
    19:00 +21°C° 0 mm 3 mps 713 mmHg 51%
    20:00 +20°C° 0 mm 3 mps 713 mmHg 54%
    21:00 +20°C° 0 mm 3 mps 713 mmHg 56%
    22:00 +19°C° 0 mm 3 mps 713 mmHg 59%
    23:00 +19°C° 0 mm 3 mps 713 mmHg 61%

    Tomorrow, 20 December, Thursday

    Time Temperature Precipitation Wind Pressure Humidity
    00:00 +18°C° 0 mm 3 mps 713 mmHg 64%
    01:00 +18°C° 0 mm 3 mps 713 mmHg 65%
    02:00 +17°C° 0 mm 2 mps 713 mmHg 67%
    03:00 +17°C° 0 mm 2 mps 713 mmHg 68%
    04:00 +17°C° 0 mm 2 mps 712 mmHg 68%
    05:00 +16°C° 0 mm 2 mps 712 mmHg 69%
    06:00 +16°C° 0 mm 2 mps 712 mmHg 69%
    07:00 +17°C° 0 mm 3 mps 713 mmHg 64%
    08:00 +18°C° 0 mm 3 mps 713 mmHg 58%
    09:00 +19°C° 0 mm 4 mps 713 mmHg 52%
    10:00 +21°C° 0 mm 4 mps 713 mmHg 46%
    11:00 +22°C° 0 mm 4 mps 713 mmHg 40%
    12:00 +25°C° 0 mm 5 mps 713 mmHg 34%
    13:00 +25°C° 0 mm 4 mps 712 mmHg 32%
    14:00 +26°C° 0 mm 4 mps 712 mmHg 30%
    15:00 +26°C° 0 mm 4 mps 711 mmHg 27%
    16:00 +26°C° 0 mm 3 mps 711 mmHg 29%
    17:00 +25°C° 0 mm 3 mps 711 mmHg 31%
    18:00 +24°C° 0 mm 2 mps 711 mmHg 32%
    19:00 +23°C° 0 mm 2 mps 712 mmHg 33%
    20:00 +23°C° 0 mm 2 mps 712 mmHg 34%
    21:00 +21°C° 0 mm 2 mps 712 mmHg 35%
    22:00 +21°C° 0 mm 2 mps 712 mmHg 36%
    23:00 +20°C° 0 mm 2 mps 712 mmHg 36%

    Day after tomorrow, 21 December, Friday

    Time Temperature Precipitation Wind Pressure Humidity
    00:00 +20°C° 0 mm 2 mps 712 mmHg 37%
    01:00 +19°C° 0 mm 2 mps 711 mmHg 37%
    02:00 +19°C° 0 mm 2 mps 711 mmHg 38%
    03:00 +19°C° 0 mm 2 mps 711 mmHg 38%
    04:00 +18°C° 0 mm 2 mps 711 mmHg 39%
    05:00 +18°C° 0 mm 3 mps 711 mmHg 40%
    06:00 +17°C° 0 mm 3 mps 711 mmHg 41%
    07:00 +18°C° 0 mm 4 mps 712 mmHg 39%
    08:00 +18°C° 0 mm 4 mps 713 mmHg 37%
    09:00 +17°C° 0 mm 5 mps 713 mmHg 36%
    10:00 +19°C° 0 mm 5 mps 713 mmHg 33%
    11:00 +20°C° 0 mm 4 mps 713 mmHg 30%
    12:00 +22°C° 0 mm 4 mps 712 mmHg 28%
    13:00 +22°C° 0 mm 4 mps 712 mmHg 27%
    14:00 +22°C° 0 mm 3 mps 711 mmHg 26%
    15:00 +24°C° 0 mm 3 mps 711 mmHg 25%
    16:00 +22°C° 0 mm 3 mps 711 mmHg 26%
    17:00 +21°C° 0 mm 3 mps 711 mmHg 28%
    18:00 +20°C° 0 mm 4 mps 711 mmHg 29%
    19:00 +19°C° 0 mm 4 mps 712 mmHg 30%
    20:00 +19°C° 0 mm 3 mps 712 mmHg 31%
    21:00 +18°C° 0 mm 3 mps 712 mmHg 33%
    22:00 +18°C° 0 mm 3 mps 712 mmHg 34%
    23:00 +17°C° 0 mm 3 mps 712 mmHg 36%

    22 December, Saturday

    Time Temperature Precipitation Wind Pressure Humidity
    00:00 +16°C° 0 mm 3 mps 712 mmHg 37%
    01:00 +16°C° 0 mm 3 mps 712 mmHg 39%
    02:00 +14°C° 0 mm 3 mps 712 mmHg 41%
    03:00 +14°C° 0 mm 3 mps 711 mmHg 42%
    04:00 +14°C° 0 mm 3 mps 712 mmHg 45%
    05:00 +13°C° 0 mm 3 mps 712 mmHg 47%
    06:00 +13°C° 0 mm 3 mps 712 mmHg 49%
    07:00 +13°C° 0 mm 4 mps 713 mmHg 47%
    08:00 +14°C° 0 mm 4 mps 713 mmHg 45%
    09:00 +14°C° 0 mm 5 mps 714 mmHg 44%
    10:00 +15°C° 0 mm 5 mps 714 mmHg 39%
    11:00 +17°C° 0 mm 4 mps 713 mmHg 35%
    12:00 +19°C° 0 mm 4 mps 713 mmHg 31%
    13:00 +19°C° 0 mm 4 mps 713 mmHg 29%
    14:00 +19°C° 0 mm 4 mps 712 mmHg 27%
    15:00 +20°C° 0 mm 4 mps 712 mmHg 26%
    16:00 +19°C° 0 mm 4 mps 712 mmHg 27%
    17:00 +18°C° 0 mm 3 mps 712 mmHg 29%
    18:00 +18°C° 0 mm 3 mps 712 mmHg 31%
    19:00 +17°C° 0 mm 3 mps 713 mmHg 33%
    20:00 +17°C° 0 mm 3 mps 713 mmHg 35%
    21:00 +16°C° 0 mm 3 mps 713 mmHg 37%
    22:00 +15°C° 0 mm 2 mps 713 mmHg 40%
    23:00 +15°C° 0 mm 2 mps 713 mmHg 42%

    23 December, Sunday

    Time Temperature Precipitation Wind Pressure Humidity
    00:00 +14°C° 0 mm 2 mps 712 mmHg 44%
    01:00 +14°C° 0 mm 2 mps 712 mmHg 45%
    02:00 +14°C° 0 mm 2 mps 712 mmHg 47%
    03:00 +13°C° 0 mm 2 mps 712 mmHg 48%
    04:00 +13°C° 0 mm 2 mps 712 mmHg 50%
    05:00 +12°C° 0 mm 2 mps 712 mmHg 51%
    06:00 +12°C° 0 mm 2 mps 712 mmHg 52%
    07:00 +13°C° 0 mm 2 mps 713 mmHg 50%
    08:00 +14°C° 0 mm 2 mps 713 mmHg 47%
    09:00 +15°C° 0 mm 2 mps 714 mmHg 45%
    10:00 +16°C° 0 mm 2 mps 714 mmHg 41%
    11:00 +17°C° 0 mm 2 mps 714 mmHg 37%
    12:00 +18°C° 0 mm 2 mps 713 mmHg 33%
    13:00 +19°C° 0 mm 2 mps 713 mmHg 31%
    14:00 +19°C° 0 mm 3 mps 713 mmHg 29%
    15:00 +20°C° 0 mm 3 mps 712 mmHg 27%
    16:00 +19°C° 0 mm 3 mps 712 mmHg 29%
    17:00 +19°C° 0 mm 3 mps 713 mmHg 30%
    18:00 +18°C° 0 mm 3 mps 713 mmHg 31%
    19:00 +18°C° 0 mm 3 mps 713 mmHg 32%
    20:00 +17°C° 0 mm 3 mps 713 mmHg 33%
    21:00 +16°C° 0 mm 3 mps 714 mmHg 34%
    22:00 +16°C° 0 mm 2 mps 713 mmHg 35%
    23:00 +15°C° 0 mm 2 mps 713 mmHg 37%

    24 December, Monday

    Time Temperature Precipitation Wind Pressure Humidity
    00:00 +15°C° 0 mm 2 mps 713 mmHg 38%
    01:00 +14°C° 0 mm 2 mps 713 mmHg 39%
    02:00 +14°C° 0 mm 2 mps 713 mmHg 40%
    03:00 +14°C° 0 mm 1 mps 712 mmHg 41%
    04:00 +13°C° 0 mm 1 mps 713 mmHg 42%
    05:00 +13°C° 0 mm 1 mps 713 mmHg 43%
    06:00 +13°C° 0 mm 1 mps 713 mmHg 44%
    07:00 +13°C° 0 mm 1 mps 713 mmHg 41%
    08:00 +14°C° 0 mm 1 mps 714 mmHg 39%
    09:00 +15°C° 0 mm 1 mps 714 mmHg 36%
    10:00 +16°C° 0 mm 1 mps 714 mmHg 33%
    11:00 +19°C° 0 mm 1 mps 714 mmHg 31%
    12:00 +20°C° 0 mm 1 mps 713 mmHg 28%
    13:00 +20°C° 0 mm 1 mps 713 mmHg 27%
    14:00 +20°C° 0 mm 2 mps 713 mmHg 26%
    15:00 +21°C° 0 mm 2 mps 712 mmHg 26%
    16:00 +20°C° 0 mm 2 mps 712 mmHg 27%
    17:00 +19°C° 0 mm 2 mps 713 mmHg 28%
    18:00 +19°C° 0 mm 3 mps 713 mmHg 29%
    19:00 +18°C° 0 mm 3 mps 713 mmHg 30%
    20:00 +17°C° 0 mm 3 mps 713 mmHg 31%
    21:00 +17°C° 0 mm 3 mps 713 mmHg 32%
    22:00 +16°C° 0 mm 2 mps 713 mmHg 33%
    23:00 +15°C° 0 mm 2 mps 713 mmHg 34%
    Show more